TimeCST,TemperatureF,Dew PointF,Humidity,Sea Level PressureIn,VisibilityMPH,Wind Direction,Wind SpeedMPH,Gust SpeedMPH,PrecipitationIn,Events,Conditions,WindDirDegrees,DateUTC
12:01 AM,5.0,-2.2,72,29.85,10.0,WNW,5.8,-,N/A,,Overcast,290,2013-01-13 06:01:00
12:21 AM,5.0,-2.2,72,29.85,10.0,WNW,8.1,-,N/A,,Overcast,300,2013-01-13 06:21:00
12:41 AM,5.0,-2.2,72,29.84,10.0,WNW,6.9,-,N/A,,Mostly Cloudy,300,2013-01-13 06:41:00
1:01 AM,3.2,-2.2,78,29.85,7.0,NW,6.9,-,N/A,,Overcast,310,2013-01-13 07:01:00
1:21 AM,3.2,-4.0,72,29.85,10.0,NW,8.1,-,N/A,,Overcast,310,2013-01-13 07:21:00
1:48 AM,3.2,-4.0,72,29.85,7.0,WNW,9.2,-,N/A,,Overcast,300,2013-01-13 07:48:00
2:01 AM,3.2,-4.0,72,29.86,10.0,NW,5.8,-,N/A,,Overcast,310,2013-01-13 08:01:00
2:21 AM,3.2,-4.0,72,29.87,5.0,NW,8.1,-,N/A,,Overcast,310,2013-01-13 08:21:00
3:01 AM,3.2,-5.8,66,29.87,10.0,WNW,5.8,-,N/A,,Overcast,300,2013-01-13 09:01:00
3:21 AM,1.4,-5.8,72,29.88,5.0,NW,6.9,-,N/A,,Overcast,310,2013-01-13 09:21:00
3:41 AM,1.4,-5.8,72,29.87,10.0,NNW,5.8,-,N/A,,Scattered Clouds,330,2013-01-13 09:41:00
4:01 AM,1.4,-5.8,72,29.86,10.0,NW,2.3,-,N/A,,Clear,320,2013-01-13 10:01:00
4:21 AM,-0.4,-5.8,78,29.86,10.0,NW,3.5,-,N/A,,Scattered Clouds,310,2013-01-13 10:21:00
4:41 AM,-0.4,-5.8,78,29.86,10.0,NNW,9.2,-,N/A,,Scattered Clouds,330,2013-01-13 10:41:00
5:15 AM,-0.4,-5.8,78,29.86,10.0,NNW,6.9,-,N/A,,Clear,330,2013-01-13 11:15:00
5:37 AM,-0.4,-5.8,78,29.86,10.0,NW,5.8,-,N/A,,Clear,320,2013-01-13 11:37:00
5:57 AM,-0.4,-7.6,72,29.85,10.0,NNW,5.8,-,N/A,,Clear,330,2013-01-13 11:57:00
6:15 AM,-0.4,-7.6,72,29.85,10.0,NNW,6.9,-,N/A,,Clear,330,2013-01-13 12:15:00
6:37 AM,-0.4,-7.6,72,29.86,10.0,NNW,5.8,-,N/A,,Clear,330,2013-01-13 12:37:00
6:48 AM,-2.2,-7.6,78,29.87,10.0,NW,4.6,-,N/A,,Clear,320,2013-01-13 12:48:00
7:15 AM,-2.2,-7.6,78,29.88,10.0,NW,5.8,-,N/A,,Clear,310,2013-01-13 13:15:00
7:36 AM,-2.2,-7.6,78,29.89,10.0,NW,4.6,-,N/A,,Clear,310,2013-01-13 13:36:00
7:58 AM,-2.2,-7.6,78,29.90,10.0,NW,6.9,-,N/A,,Clear,320,2013-01-13 13:58:00
8:16 AM,-2.2,-7.6,78,29.90,10.0,NW,6.9,-,N/A,,Clear,320,2013-01-13 14:16:00
8:21 AM,-0.4,-7.6,72,29.91,10.0,NW,8.1,-,N/A,,Clear,320,2013-01-13 14:21:00
9:01 AM,-0.4,-7.6,72,29.93,10.0,NNW,6.9,-,N/A,,Clear,330,2013-01-13 15:01:00
9:21 AM,-0.4,-7.6,72,29.92,10.0,NNW,8.1,-,N/A,,Clear,330,2013-01-13 15:21:00
9:41 AM,1.4,-5.8,72,29.92,10.0,NW,6.9,-,N/A,,Clear,310,2013-01-13 15:41:00
10:01 AM,1.4,-5.8,72,29.91,10.0,NW,8.1,-,N/A,,Clear,310,2013-01-13 16:01:00
10:41 AM,3.2,-5.8,66,29.92,10.0,NW,3.5,-,N/A,,Clear,310,2013-01-13 16:41:00
11:01 AM,3.2,-5.8,66,29.90,10.0,NW,8.1,-,N/A,,Clear,320,2013-01-13 17:01:00
11:21 AM,6.8,-5.8,56,29.88,10.0,NNW,9.2,-,N/A,,Clear,330,2013-01-13 17:21:00
11:41 AM,6.8,-4.0,61,29.87,10.0,WNW,9.2,-,N/A,,Clear,300,2013-01-13 17:41:00
12:01 PM,6.8,-4.0,61,29.86,10.0,NW,9.2,-,N/A,,Clear,320,2013-01-13 18:01:00
12:41 PM,3.2,-5.8,66,29.86,10.0,NW,6.9,-,N/A,,Clear,310,2013-01-13 18:41:00
1:01 PM,3.2,-5.8,66,29.86,4.0,WNW,4.6,-,N/A,,Mostly Cloudy,300,2013-01-13 19:01:00
1:41 PM,3.2,-5.8,66,29.85,1.2,NW,10.4,-,N/A,,Overcast,320,2013-01-13 19:41:00
2:01 PM,3.2,-4.0,72,29.85,1.8,NW,8.1,-,N/A,,Overcast,320,2013-01-13 20:01:00
2:21 PM,3.2,-4.0,72,29.85,1.8,NW,11.5,17.3,N/A,,Overcast,310,2013-01-13 20:21:00
4:01 PM,3.2,-4.0,72,29.88,4.0,NW,8.1,-,N/A,,Overcast,320,2013-01-13 22:01:00
4:21 PM,3.2,-4.0,72,29.88,10.0,NW,9.2,-,N/A,,Overcast,320,2013-01-13 22:21:00
4:41 PM,3.2,-4.0,72,29.88,7.0,NW,6.9,-,N/A,,Overcast,310,2013-01-13 22:41:00
5:01 PM,3.2,-4.0,72,29.89,5.0,WNW,6.9,-,N/A,,Overcast,300,2013-01-13 23:01:00
5:21 PM,3.2,-4.0,72,29.89,7.0,NW,6.9,-,N/A,,Overcast,310,2013-01-13 23:21:00
5:41 PM,3.2,-4.0,72,29.89,7.0,NW,8.1,-,N/A,,Overcast,310,2013-01-13 23:41:00
6:18 PM,3.2,-4.0,72,29.89,10.0,NW,8.1,16.1,N/A,,Overcast,310,2013-01-14 00:18:00
6:21 PM,3.2,-4.0,72,29.89,7.0,NW,5.8,-,N/A,,Overcast,310,2013-01-14 00:21:00
6:41 PM,3.2,-4.0,72,29.89,7.0,NW,8.1,-,N/A,,Overcast,310,2013-01-14 00:41:00
7:01 PM,3.2,-4.0,72,29.90,7.0,NW,8.1,-,N/A,,Overcast,310,2013-01-14 01:01:00
7:21 PM,3.2,-4.0,72,29.90,7.0,WNW,4.6,-,N/A,,Overcast,300,2013-01-14 01:21:00
7:41 PM,3.2,-4.0,72,29.90,7.0,NW,6.9,-,N/A,,Overcast,310,2013-01-14 01:41:00
8:01 PM,3.2,-2.2,78,29.91,5.0,WNW,1.2,-,N/A,,Overcast,300,2013-01-14 02:01:00
8:21 PM,3.2,-2.2,78,29.91,7.0,WNW,5.8,-,N/A,,Overcast,300,2013-01-14 02:21:00
8:55 PM,1.4,-4.0,78,29.92,10.0,WNW,6.9,-,N/A,,Mostly Cloudy,300,2013-01-14 02:55:00
9:15 PM,1.4,-4.0,78,29.93,10.0,WNW,6.9,-,N/A,,Scattered Clouds,300,2013-01-14 03:15:00
9:35 PM,1.4,-5.8,72,29.93,10.0,NW,5.8,-,N/A,,Clear,310,2013-01-14 03:35:00
9:52 PM,1.4,-5.8,72,29.94,10.0,WNW,4.6,-,N/A,,Clear,290,2013-01-14 03:52:00
10:16 PM,-0.4,-5.8,78,29.94,10.0,WNW,6.9,-,N/A,,Clear,300,2013-01-14 04:16:00
10:38 PM,-0.4,-5.8,78,29.95,10.0,WNW,5.8,-,N/A,,Clear,290,2013-01-14 04:38:00
10:58 PM,-0.4,-5.8,78,29.96,10.0,WNW,4.6,-,N/A,,Clear,300,2013-01-14 04:58:00
11:20 PM,-2.2,-7.6,78,29.97,10.0,WNW,3.5,-,N/A,,Clear,300,2013-01-14 05:20:00
11:40 PM,-2.2,-7.6,78,29.97,10.0,WNW,4.6,-,N/A,,Clear,290,2013-01-14 05:40:00
11:55 PM,-2.2,-7.6,78,29.97,10.0,NW,5.8,-,N/A,,Clear,310,2013-01-14 05:55:00